Total_Precipitation_Accumulation
0.39 0.41 0.38 0.32 0.26 0.36 0.50 0.60 0.60 0.61 0.57 0.53 0.51 0.45 0.42 0.42 0.47 0.51 0.48 0.50 0.64 0.70 0.72 0.72 0.63 0.53 0.47 0.40 0.36 0.33 0.31 0.29 0.24 0.19 0.18 0.16 0.15 0.19 0.24 0.30 0.32 0.32 0.32
0.72 0.77 0.67 0.56 0.44 0.47 0.52 0.65 0.65 0.71 0.60 0.60 0.42 0.40 0.41 0.38 0.43 0.47 0.47 0.65 0.76 0.64 0.57 0.58 0.60 0.54 0.46 0.39 0.34 0.31 0.28 0.25 0.21 0.15 0.15 0.12 0.11 0.13 0.20 0.27 0.31 0.27 0.20
1.11 1.07 0.86 0.62 0.58 0.73 0.79 0.68 0.61 0.73 0.50 0.45 0.40 0.49 0.51 0.42 0.36 0.36 0.37 0.46 0.57 0.52 0.43 0.40 0.46 0.48 0.50 0.49 0.45 0.43 0.35 0.26 0.20 0.16 0.13 0.10 0.09 0.10 0.12 0.18 0.26 0.24 0.18
1.07 1.05 0.75 0.46 0.55 0.79 0.86 0.78 0.73 0.73 0.61 0.62 0.62 0.66 0.65 0.52 0.36 0.31 0.25 0.26 0.31 0.27 0.33 0.43 0.41 0.39 0.50 0.62 0.69 0.74 0.62 0.45 0.28 0.20 0.14 0.12 0.10 0.07 0.08 0.11 0.17 0.19 0.16
0.72 0.73 0.46 0.35 0.51 0.66 0.69 0.68 0.71 0.77 0.67 0.69 0.76 0.70 0.55 0.42 0.31 0.25 0.21 0.18 0.20 0.20 0.19 0.30 0.29 0.34 0.51 0.71 0.86 0.93 0.88 0.72 0.53 0.39 0.28 0.19 0.15 0.10 0.08 0.08 0.10 0.14 0.15
0.49 0.54 0.41 0.32 0.47 0.56 0.52 0.68 0.75 0.82 0.69 0.64 0.66 0.45 0.33 0.22 0.20 0.14 0.12 0.11 0.11 0.11 0.12 0.17 0.28 0.29 0.47 0.64 0.79 0.93 1.07 0.96 0.69 0.53 0.44 0.35 0.28 0.18 0.11 0.08 0.08 0.10 0.11
0.47 0.53 0.44 0.38 0.41 0.44 0.41 0.56 0.67 0.68 0.51 0.71 0.79 0.37 0.17 0.10 0.10 0.08 0.07 0.07 0.07 0.10 0.15 0.19 0.24 0.30 0.48 0.58 0.72 0.84 1.09 1.09 0.85 0.65 0.56 0.48 0.43 0.31 0.19 0.13 0.09 0.08 0.07
0.41 0.43 0.37 0.30 0.31 0.35 0.35 0.39 0.48 0.52 0.44 0.70 0.79 0.64 0.33 0.16 0.10 0.06 0.09 0.10 0.12 0.14 0.19 0.23 0.33 0.44 0.55 0.75 0.76 0.68 0.81 1.02 1.01 0.87 0.77 0.60 0.50 0.39 0.29 0.22 0.14 0.09 0.06
0.33 0.30 0.26 0.25 0.28 0.29 0.31 0.36 0.47 0.58 0.49 0.54 0.74 0.84 0.58 0.29 0.24 0.17 0.19 0.24 0.26 0.31 0.34 0.42 0.52 0.59 0.67 0.78 0.79 0.78 0.69 0.78 1.00 1.15 1.08 0.83 0.57 0.47 0.45 0.43 0.35 0.21 0.14
0.27 0.24 0.24 0.31 0.34 0.37 0.41 0.40 0.44 0.52 0.54 0.47 0.54 0.68 0.71 0.67 0.55 0.30 0.21 0.23 0.30 0.34 0.38 0.44 0.49 0.60 0.64 0.77 1.00 1.06 0.95 0.82 0.77 0.96 1.08 1.06 0.86 0.61 0.49 0.49 0.62 0.58 0.38
0.30 0.27 0.23 0.25 0.31 0.37 0.39 0.39 0.39 0.45 0.50 0.49 0.47 0.51 0.61 0.71 0.68 0.52 0.29 0.21 0.28 0.31 0.39 0.46 0.52 0.57 0.61 0.76 1.02 1.11 1.14 0.92 0.80 0.75 0.83 0.88 0.83 0.70 0.60 0.64 0.91 1.17 1.05
0.32 0.30 0.27 0.27 0.27 0.27 0.28 0.31 0.33 0.35 0.38 0.41 0.44 0.47 0.51 0.54 0.58 0.66 0.52 0.40 0.36 0.37 0.47 0.56 0.65 0.71 0.72 0.74 0.74 0.82 0.80 0.80 0.74 0.66 0.58 0.56 0.60 0.66 0.70 0.87 1.16 1.42 1.54
0.28 0.30 0.30 0.33 0.36 0.35 0.32 0.32 0.34 0.34 0.38 0.40 0.41 0.44 0.48 0.51 0.59 0.68 0.64 0.52 0.49 0.56 0.66 0.71 0.67 0.70 0.69 0.80 0.73 0.60 0.48 0.48 0.44 0.41 0.38 0.40 0.45 0.52 0.59 0.65 0.77 0.93 1.08
0.27 0.32 0.36 0.37 0.37 0.41 0.42 0.45 0.47 0.47 0.45 0.44 0.40 0.48 0.52 0.51 0.60 0.66 0.69 0.69 0.62 0.68 0.81 0.71 0.52 0.50 0.52 0.54 0.49 0.45 0.49 0.38 0.29 0.23 0.20 0.20 0.21 0.24 0.30 0.41 0.52 0.61 0.69
0.22 0.23 0.30 0.40 0.40 0.40 0.45 0.51 0.52 0.53 0.54 0.55 0.55 0.58 0.60 0.58 0.58 0.62 0.70 0.74 0.72 0.70 0.78 0.69 0.51 0.46 0.43 0.38 0.35 0.37 0.42 0.43 0.29 0.16 0.11 0.10 0.11 0.13 0.15 0.17 0.22 0.29 0.39
0.19 0.19 0.23 0.30 0.33 0.35 0.42 0.52 0.57 0.60 0.65 0.68 0.63 0.61 0.66 0.66 0.63 0.65 0.68 0.72 0.77 0.81 0.76 0.57 0.46 0.41 0.40 0.32 0.29 0.27 0.28 0.32 0.22 0.14 0.09 0.07 0.06 0.07 0.09 0.12 0.14 0.15 0.17
0.16 0.15 0.16 0.17 0.18 0.21 0.28 0.42 0.61 0.69 0.75 0.74 0.70 0.70 0.68 0.68 0.64 0.58 0.61 0.65 0.71 0.76 0.61 0.43 0.43 0.45 0.45 0.37 0.30 0.25 0.19 0.19 0.19 0.16 0.09 0.07 0.05 0.06 0.07 0.10 0.10 0.10 0.11
0.16 0.14 0.12 0.11 0.11 0.13 0.21 0.36 0.52 0.65 0.76 0.83 0.78 0.73 0.61 0.54 0.53 0.51 0.55 0.58 0.59 0.63 0.52 0.39 0.35 0.38 0.39 0.37 0.32 0.26 0.18 0.13 0.15 0.20 0.12 0.08 0.06 0.07 0.09 0.08 0.06 0.06 0.09
0.21 0.18 0.15 0.14 0.18 0.24 0.31 0.40 0.46 0.57 0.70 0.74 0.71 0.61 0.51 0.48 0.47 0.47 0.46 0.47 0.46 0.45 0.42 0.33 0.28 0.30 0.34 0.32 0.28 0.24 0.20 0.18 0.18 0.17 0.12 0.10 0.10 0.11 0.13 0.11 0.07 0.06 0.09
0.19 0.17 0.17 0.20 0.26 0.33 0.37 0.37 0.39 0.45 0.50 0.55 0.56 0.49 0.41 0.37 0.36 0.36 0.35 0.32 0.31 0.30 0.27 0.23 0.20 0.23 0.28 0.31 0.25 0.21 0.20 0.19 0.19 0.17 0.16 0.20 0.23 0.22 0.20 0.16 0.10 0.08 0.08
0.10 0.13 0.17 0.21 0.26 0.30 0.30 0.33 0.35 0.33 0.37 0.37 0.34 0.34 0.30 0.27 0.27 0.27 0.24 0.20 0.19 0.20 0.20 0.20 0.19 0.21 0.25 0.31 0.28 0.20 0.18 0.20 0.21 0.19 0.20 0.25 0.28 0.26 0.23 0.20 0.16 0.10 0.06
0.06 0.10 0.13 0.16 0.18 0.19 0.23 0.24 0.22 0.20 0.21 0.24 0.25 0.23 0.19 0.20 0.19 0.19 0.18 0.15 0.14 0.14 0.17 0.19 0.20 0.21 0.22 0.23 0.22 0.19 0.17 0.16 0.16 0.21 0.32 0.34 0.26 0.28 0.46 0.47 0.30 0.12 0.04
0.07 0.10 0.12 0.13 0.14 0.16 0.12 0.09 0.08 0.11 0.15 0.20 0.22 0.22 0.18 0.14 0.13 0.13 0.11 0.09 0.09 0.10 0.13 0.17 0.17 0.17 0.17 0.16 0.17 0.18 0.21 0.20 0.16 0.13 0.14 0.13 0.10 0.18 0.49 0.67 0.41 0.16 0.09
0.10 0.13 0.14 0.13 0.15 0.16 0.11 0.07 0.05 0.07 0.12 0.17 0.19 0.19 0.17 0.14 0.13 0.11 0.09 0.07 0.06 0.07 0.10 0.13 0.14 0.14 0.14 0.13 0.15 0.17 0.21 0.20 0.20 0.13 0.08 0.08 0.08 0.11 0.17 0.27 0.29 0.16 0.09
0.20 0.19 0.18 0.17 0.18 0.19 0.13 0.09 0.07 0.10 0.14 0.17 0.19 0.19 0.17 0.13 0.11 0.10 0.10 0.08 0.06 0.07 0.11 0.13 0.14 0.15 0.14 0.13 0.11 0.11 0.11 0.10 0.12 0.11 0.06 0.09 0.10 0.10 0.11 0.12 0.18 0.22 0.16
0.33 0.31 0.27 0.22 0.22 0.24 0.20 0.13 0.11 0.14 0.19 0.21 0.23 0.22 0.20 0.16 0.12 0.09 0.10 0.08 0.06 0.05 0.06 0.08 0.10 0.13 0.13 0.14 0.13 0.09 0.08 0.07 0.07 0.06 0.04 0.07 0.10 0.09 0.10 0.10 0.09 0.14 0.21